Home > Weather > Ontario > Past weeks

Flag for USA Weather for the Past 2 Weeks in Ontario, Oregon, USA

Now
69 °F

Sunny.


Feels Like: 69 °F
Forecast: 47 / 68 °F
Wind: 23 mph from North

Location: Ontario Municipal Airport

Current Time: Apr 30, 2016 at 3:45:27 PM

Latest Report: Apr 30, 2016 at 2:53 PM


Visibility: 10 mi

Pressure: 30.07 "Hg (27.86 "Hg at 656m altitude)

Humidity: 31%

Dew Point: 37 °F

Location of OntarioLocation

Historic Weather in Ontario — Graph

°F

Ontario Temperature Yesterday

Maximum temperature yesterday: 62 °F (at 12:53 PM)
Minimum temperature yesterday: 48 °F (at 7:53 AM)
Average temperature yesterday: 55 °F

High & Low Weather Summary for the Past Weeks

 TemperatureHumidityPressure
High83 °F (Apr 21, 4:53 PM)93% (Apr 24, 12:53 AM)30.39 "Hg (Apr 24, 12:53 AM)
Low37 °F (Apr 16, 6:53 AM)15% (Apr 18, 5:53 PM)29.58 "Hg (Apr 22, 1:53 AM)
Average57 °F51%29.96 "Hg
* Reported Apr 15 1:53 PM — Apr 30 1:53 PM, Ontario, Weather by CustomWeather, © 2016

Note: Actual official high and low records may vary slightly from our data, if they occured in-between our weather recording intervals... More about our weather records

Advertising

Ontario Weather History for the Previous 24 Hours

Scroll right to see more
 ConditionsComfort  
Time TempWeatherWind HumidityBarometerVisibility
1:53 PM
Sat, Apr 30
68 °FMild.24 mph33%30.08 "Hg10 mi
12:53 PM67 °FSunny.23 mph35%30.10 "Hg10 mi
11:53 AM64 °FSunny.18 mph38%30.11 "Hg10 mi
10:53 AM61 °FSunny.21 mph44%30.12 "Hg10 mi
9:53 AM58 °FSunny.23 mph47%30.13 "Hg10 mi
8:53 AM54 °FSunny.20 mph53%30.12 "Hg10 mi
7:53 AM50 °FClear.15 mph61%30.11 "Hg10 mi
6:53 AM48 °FClear.16 mph63%30.09 "Hg10 mi
5:53 AM49 °FClear.16 mph64%30.08 "Hg10 mi
4:53 AM49 °FClear.16 mph66%30.06 "Hg10 mi
3:53 AM49 °FClear.17 mph66%30.06 "Hg10 mi
2:53 AM49 °FClear.17 mph69%30.04 "Hg10 mi
1:53 AM49 °FClear.17 mph66%30.03 "Hg10 mi
12:53 AM49 °FClear.17 mph66%30.01 "Hg10 mi
11:53 PM
Fri, Apr 29
50 °FClear.15 mph61%30.01 "Hg10 mi
10:53 PM50 °FClear.17 mph61%30.00 "Hg10 mi
9:53 PM52 °FSunny.17 mph55%29.98 "Hg10 mi
8:53 PM53 °FSunny.16 mph52%29.96 "Hg10 mi
7:53 PM56 °FPartly sunny.21 mph49%29.94 "Hg10 mi
6:53 PM59 °FPartly sunny.12 mph48%29.92 "Hg10 mi
5:53 PM61 °FPassing clouds.14 mph46%29.90 "Hg10 mi
4:53 PM62 °FMore clouds than sun.14 mph41%29.90 "Hg10 mi
3:53 PM61 °FPassing clouds.10 mph42%29.90 "Hg10 mi
Weather by CustomWeather, © 2016

See weather overviewHow to use our weather pages